Location: Arrodets-la-Barthe
(43.0306°N, 0.2829°E)
Time: 11:59:50
(UTC+00:00)

CSL-04 Rocket - Pass Details

Date: 31 May 2022
Orbit: 807 x 859 km, 98.9° (Epoch: 30 June)

Event Time Altitude Azimuth Distance (km) Brightness Sun altitude
Rises 20:24:31 0° 190° (S) 3,322 6.5 -8.7°
Reaches altitude 10° 20:27:04 10° 200° (SSW) 2,401 5.9 -9.1°
Maximum altitude 20:31:49 33° 264° (W) 1,362 5.3 -9.7°
Drops below altitude 10° 20:36:39 10° 327° (NNW) 2,446 7.6 -10.4°
Sets 20:39:17 0° 337° (NNW) 3,393 8.2 -10.7°
